EJU41RE LIMC-GVAC

Flight info

Callsign EJU41RE
Flight time N/A
Altitude 35000
Route NEDED DCT GEKBA DCT VAMTU DCT KOLON DCT GANGU DCT PADKO DCT DIVKO DCT NILDU DCT NENDA DCT BCN DCT RODRA DCT PEXOT DCT EBROX DCT LOTOS DCT TORDU DCT DIKUT DCT SOPET DCT VLC DCT SERRA DCT ASTRO DCT POBOS DCT XEBAR DCT YES DCT MAMIS DCT BAZAS DCT AMOTA DCT SVL DCT CLANA DCT KORNO UN857 IBALU/N0445F370 UN857 TERTO DCT ANARU DCT LIMAL/N0449F380 N873 IPERA DCT DIMKI DIMKI1S
Aircraft A320/M-SDE3FGHIRWY/LB1

Departure

Time 2026-04-30 11:04
Airport Milan Malpensa International Airport (LIMC)

Arrival

Time N/A
Airport Amílcar Cabral International Airport (GVAC)
Time Latitude Longitude Altitude Speed Heading
2026-04-30 10:28 45.64561 8.72203 752 ft 0 kts 79°
2026-04-30 10:53 45.64561 8.72201 751 ft 2 kts 79°
2026-04-30 10:53 45.64557 8.72166 747 ft 4 kts 86°
2026-04-30 10:53 45.64557 8.72128 748 ft 4 kts 106°
2026-04-30 10:54 45.64569 8.72101 749 ft 3 kts 165°
2026-04-30 10:54 45.64573 8.72099 747 ft 0 kts 171°
2026-04-30 10:56 45.64570 8.72100 747 ft 2 kts 171°
2026-04-30 10:56 45.64540 8.72107 746 ft 7 kts 169°
2026-04-30 10:56 45.64481 8.72124 749 ft 9 kts 168°
2026-04-30 10:56 45.64431 8.72184 750 ft 11 kts 129°
2026-04-30 10:57 45.64347 8.72237 747 ft 16 kts 169°
2026-04-30 10:57 45.64229 8.72270 751 ft 18 kts 169°
2026-04-30 10:57 45.64110 8.72303 748 ft 17 kts 169°
2026-04-30 10:57 45.63994 8.72334 750 ft 16 kts 169°
2026-04-30 10:58 45.63935 8.72378 750 ft 9 kts 112°
2026-04-30 10:58 45.63946 8.72484 752 ft 12 kts 78°
2026-04-30 10:58 45.63914 8.72575 749 ft 11 kts 160°
2026-04-30 10:58 45.63827 8.72601 751 ft 16 kts 169°
2026-04-30 10:59 45.63698 8.72637 750 ft 22 kts 168°
2026-04-30 10:59 45.63528 8.72684 748 ft 27 kts 169°
2026-04-30 10:59 45.63344 8.72733 751 ft 27 kts 169°
2026-04-30 10:59 45.63161 8.72784 750 ft 27 kts 169°
2026-04-30 11:00 45.62972 8.72836 752 ft 28 kts 168°
2026-04-30 11:00 45.62782 8.72888 751 ft 28 kts 169°
2026-04-30 11:00 45.62589 8.72941 752 ft 28 kts 169°
2026-04-30 11:00 45.62395 8.72995 753 ft 28 kts 169°
2026-04-30 11:01 45.62199 8.73048 752 ft 29 kts 170°
2026-04-30 11:01 45.62002 8.73102 751 ft 29 kts 169°
2026-04-30 11:01 45.61818 8.73153 753 ft 14 kts 170°
2026-04-30 11:01 45.61739 8.73210 750 ft 12 kts 129°
2026-04-30 11:02 45.61689 8.73315 751 ft 13 kts 124°
2026-04-30 11:02 45.61636 8.73427 750 ft 14 kts 124°
2026-04-30 11:02 45.61586 8.73553 748 ft 15 kts 103°
2026-04-30 11:02 45.61596 8.73706 745 ft 8 kts 81°
2026-04-30 11:03 45.61625 8.73734 745 ft 0 kts 350°
2026-04-30 11:03 45.61630 8.73733 745 ft 11 kts 350°
2026-04-30 11:03 45.61965 8.73641 745 ft 84 kts 349°
2026-04-30 11:04 45.63827 8.73134 806 ft 176 kts 352°
2026-04-30 11:04 45.64992 8.72817 1521 ft 171 kts 352°
2026-04-30 11:04 45.66181 8.72573 2188 ft 173 kts
2026-04-30 11:04 45.67379 8.72603 2837 ft 172 kts
2026-04-30 11:05 45.68576 8.72624 3430 ft 172 kts
2026-04-30 11:05 45.69771 8.72610 3976 ft 173 kts
2026-04-30 11:05 45.71040 8.72587 4199 ft 193 kts
2026-04-30 11:05 45.72367 8.71944 4413 ft 218 kts 320°
2026-04-30 11:06 45.73117 8.70003 4698 ft 236 kts 276°
2026-04-30 11:06 45.72947 8.67613 5164 ft 244 kts 256°
2026-04-30 11:06 45.72539 8.65271 5906 ft 243 kts 253°
2026-04-30 11:06 45.72078 8.62934 6611 ft 244 kts 253°
2026-04-30 11:07 45.71586 8.60603 7275 ft 245 kts 247°
2026-04-30 11:07 45.70751 8.58446 7812 ft 254 kts 237°
2026-04-30 11:07 45.69753 8.56240 8132 ft 273 kts 237°
2026-04-30 11:07 45.68670 8.53947 8736 ft 281 kts 230°
2026-04-30 11:08 45.67247 8.52075 9453 ft 285 kts 215°
2026-04-30 11:08 45.65473 8.50781 10186 ft 289 kts 204°
2026-04-30 11:08 45.63598 8.49692 10804 ft 293 kts 203°
2026-04-30 11:08 45.61695 8.48585 11420 ft 298 kts 203°
2026-04-30 11:09 45.59760 8.47459 11998 ft 304 kts 204°
2026-04-30 11:09 45.57761 8.46292 12362 ft 319 kts 204°
2026-04-30 11:09 45.55641 8.45054 12497 ft 341 kts 203°
2026-04-30 11:09 45.53370 8.43799 12700 ft 358 kts 201°
2026-04-30 11:10 45.50995 8.42595 13201 ft 365 kts 200°
2026-04-30 11:10 45.48574 8.41421 13778 ft 370 kts 199°
2026-04-30 11:10 45.46111 8.40239 14299 ft 375 kts 199°
2026-04-30 11:10 45.43624 8.39041 14818 ft 379 kts 199°
2026-04-30 11:11 45.41121 8.37824 15370 ft 381 kts 199°
2026-04-30 11:11 45.38604 8.36589 15929 ft 384 kts 200°
2026-04-30 11:11 45.36099 8.35353 16445 ft 387 kts 200°
2026-04-30 11:11 45.33541 8.34089 16950 ft 391 kts 200°
2026-04-30 11:12 45.30954 8.32810 17491 ft 394 kts 199°
2026-04-30 11:12 45.28358 8.31534 18033 ft 396 kts 199°
2026-04-30 11:12 45.25735 8.30247 18523 ft 400 kts 200°
2026-04-30 11:12 45.23097 8.28952 18945 ft 403 kts 200°
2026-04-30 11:13 45.20435 8.27645 19398 ft 406 kts 200°
2026-04-30 11:13 45.17762 8.26336 19861 ft 407 kts 200°
2026-04-30 11:13 45.15071 8.25018 20288 ft 410 kts 200°
2026-04-30 11:13 45.12360 8.23687 20714 ft 413 kts 200°
2026-04-30 11:14 45.09571 8.22667 21138 ft 416 kts 189°
2026-04-30 11:14 45.06703 8.22048 21589 ft 418 kts 189°
2026-04-30 11:14 45.03820 8.21431 22014 ft 420 kts 189°
2026-04-30 11:14 45.00930 8.20811 22421 ft 422 kts 189°
2026-04-30 11:15 44.98019 8.20187 22823 ft 424 kts 189°
2026-04-30 11:15 44.95090 8.19560 23228 ft 426 kts 189°
2026-04-30 11:15 44.92151 8.18929 23622 ft 429 kts 189°
2026-04-30 11:15 44.89190 8.18293 23985 ft 431 kts 190°
2026-04-30 11:16 44.86225 8.17657 24336 ft 432 kts 191°
2026-04-30 11:16 44.83251 8.17021 24690 ft 433 kts 191°
2026-04-30 11:16 44.80262 8.16381 25015 ft 435 kts 191°
2026-04-30 11:16 44.77302 8.15744 25346 ft 437 kts 191°
2026-04-30 11:17 44.74288 8.15100 25649 ft 439 kts 191°
2026-04-30 11:17 44.71272 8.14404 25952 ft 439 kts 196°
2026-04-30 11:17 44.68397 8.13046 26249 ft 434 kts 209°
2026-04-30 11:17 44.65781 8.10963 26545 ft 432 kts 216°
2026-04-30 11:18 44.63218 8.08748 26851 ft 434 kts 215°
2026-04-30 11:18 44.58051 8.04313 27502 ft 437 kts 215°
2026-04-30 11:18 44.55452 8.02089 27816 ft 438 kts 216°
2026-04-30 11:19 44.52844 7.99861 28120 ft 440 kts 216°
2026-04-30 11:19 44.50222 7.97625 28421 ft 441 kts 216°
2026-04-30 11:19 44.47599 7.95389 28703 ft 442 kts 215°
2026-04-30 11:19 44.44965 7.93141 28987 ft 444 kts 215°
2026-04-30 11:20 44.42327 7.90893 29242 ft 445 kts 215°
2026-04-30 11:20 44.39676 7.88632 29500 ft 447 kts 215°
2026-04-30 11:20 44.37021 7.86367 29760 ft 448 kts 215°
2026-04-30 11:20 44.34354 7.84097 29987 ft 449 kts 215°
2026-04-30 11:21 44.31681 7.81829 30269 ft 450 kts 215°
2026-04-30 11:21 44.29002 7.79560 30509 ft 451 kts 215°
2026-04-30 11:21 44.26450 7.77159 30778 ft 445 kts 224°
2026-04-30 11:21 44.24126 7.74327 31054 ft 443 kts 225°
2026-04-30 11:22 44.21818 7.71479 31332 ft 442 kts 225°
2026-04-30 11:22 44.19518 7.68643 31604 ft 441 kts 225°
2026-04-30 11:22 44.17218 7.65810 31910 ft 440 kts 225°
2026-04-30 11:22 44.14933 7.62980 32199 ft 438 kts 228°
2026-04-30 11:23 44.12889 7.59876 32465 ft 433 kts 233°
2026-04-30 11:23 44.10917 7.56705 32767 ft 432 kts 232°
2026-04-30 11:23 44.06981 7.50402 33332 ft 431 kts 232°
2026-04-30 11:24 44.05017 7.47266 33612 ft 429 kts 233°
2026-04-30 11:24 44.03056 7.44135 33884 ft 429 kts 232°
2026-04-30 11:24 44.01099 7.41017 34160 ft 428 kts 232°
2026-04-30 11:25 43.97194 7.34809 34634 ft 425 kts 232°
2026-04-30 11:25 43.95903 7.32761 34817 ft 424 kts 232°
2026-04-30 11:25 43.92019 7.26602 35166 ft 424 kts 232°
2026-04-30 11:26 43.88151 7.20468 35177 ft 421 kts 232°
2026-04-30 11:26 43.84286 7.14366 35168 ft 421 kts 232°
2026-04-30 11:27 43.80419 7.08269 35169 ft 421 kts 232°
2026-04-30 11:27 43.76554 7.02189 35166 ft 420 kts 232°
2026-04-30 11:28 43.71387 6.92549 35163 ft 413 kts 249°
2026-04-30 11:29 43.69228 6.85207 35160 ft 412 kts 250°
2026-04-30 11:29 43.65997 6.74246 35159 ft 413 kts 250°
2026-04-30 11:30 43.62728 6.63249 35153 ft 413 kts 250°
2026-04-30 11:31 43.60546 6.55933 35161 ft 412 kts 250°
2026-04-30 11:31 43.58369 6.48621 35165 ft 412 kts 250°
2026-04-30 11:32 43.56190 6.41304 35158 ft 412 kts 249°
2026-04-30 11:32 43.53999 6.33998 35152 ft 412 kts 249°
2026-04-30 11:33 43.50694 6.23039 35150 ft 413 kts 249°
2026-04-30 11:33 43.48501 6.15773 35146 ft 413 kts 249°
2026-04-30 11:34 43.46290 6.08461 35143 ft 414 kts 249°
2026-04-30 11:34 43.44077 6.01170 35140 ft 412 kts 249°
2026-04-30 11:35 43.41862 5.93898 35136 ft 412 kts 249°
2026-04-30 11:35 43.39643 5.86640 35127 ft 412 kts 249°
2026-04-30 11:36 43.37438 5.79423 35126 ft 412 kts 249°
2026-04-30 11:36 43.35213 5.72173 35119 ft 412 kts 249°
2026-04-30 11:37 43.32980 5.64930 35117 ft 412 kts 248°
2026-04-30 11:37 43.30739 5.57671 35113 ft 413 kts 248°
2026-04-30 11:38 43.28489 5.50421 35129 ft 412 kts 248°
2026-04-30 11:38 43.26244 5.43210 35148 ft 410 kts 248°
2026-04-30 11:39 43.24006 5.36033 35150 ft 409 kts 248°
2026-04-30 11:39 43.21777 5.28878 35153 ft 408 kts 248°
2026-04-30 11:40 43.19542 5.21728 35146 ft 408 kts 248°
2026-04-30 11:40 43.17314 5.14636 35144 ft 408 kts 248°
2026-04-30 11:41 43.15065 5.07495 35142 ft 407 kts 248°
2026-04-30 11:41 43.12819 5.00371 35141 ft 407 kts 248°
2026-04-30 11:42 43.10570 4.93253 35146 ft 407 kts 248°
2026-04-30 11:42 43.08323 4.86194 35154 ft 406 kts 248°
2026-04-30 11:43 43.05902 4.79220 35154 ft 407 kts 239°
2026-04-30 11:43 43.02121 4.73447 35149 ft 411 kts 225°
2026-04-30 11:44 42.97823 4.68265 35140 ft 412 kts 225°
2026-04-30 11:44 42.93527 4.63092 35137 ft 412 kts 225°
2026-04-30 11:45 42.89236 4.57911 35126 ft 412 kts 225°
2026-04-30 11:45 42.84968 4.52761 35134 ft 412 kts 225°
2026-04-30 11:46 42.80666 4.47587 35133 ft 412 kts 225°
2026-04-30 11:46 42.76355 4.42435 35130 ft 412 kts 225°
2026-04-30 11:47 42.72041 4.37286 35133 ft 412 kts 225°
2026-04-30 11:47 42.67734 4.32139 35131 ft 412 kts 225°
2026-04-30 11:48 42.63426 4.26995 35134 ft 412 kts 225°
2026-04-30 11:48 42.59107 4.21867 35128 ft 412 kts 225°
2026-04-30 11:49 42.54785 4.16751 35133 ft 412 kts 225°
2026-04-30 11:49 42.50467 4.11636 35127 ft 411 kts 225°
2026-04-30 11:50 42.46158 4.06548 35139 ft 410 kts 225°
2026-04-30 11:50 42.41853 4.01472 35135 ft 410 kts 225°
2026-04-30 11:51 42.37549 3.96402 35134 ft 409 kts 225°
2026-04-30 11:51 42.33282 3.91380 35115 ft 409 kts 226°
2026-04-30 11:52 42.28991 3.86344 35121 ft 408 kts 226°
2026-04-30 11:52 42.25021 3.80978 35133 ft 400 kts 238°
2026-04-30 11:53 42.21820 3.74860 35128 ft 399 kts 238°
2026-04-30 11:53 42.18611 3.68760 35128 ft 399 kts 238°
2026-04-30 11:54 42.15392 3.62668 35124 ft 399 kts 238°
2026-04-30 11:54 42.12166 3.56588 35106 ft 398 kts 238°
2026-04-30 11:55 42.08947 3.50519 35123 ft 398 kts 238°
2026-04-30 11:55 42.05752 3.44496 35127 ft 397 kts 238°
2026-04-30 11:56 42.02527 3.38436 35129 ft 397 kts 238°
2026-04-30 11:56 41.99304 3.32392 35123 ft 397 kts 238°
2026-04-30 11:57 41.96081 3.26366 35123 ft 397 kts 238°
2026-04-30 11:57 41.92876 3.20381 35109 ft 396 kts 238°
2026-04-30 11:58 41.89653 3.14377 35117 ft 395 kts 238°
2026-04-30 11:58 41.86438 3.08392 35136 ft 395 kts 238°
2026-04-30 11:59 41.83218 3.02423 35127 ft 394 kts 238°
2026-04-30 11:59 41.80004 2.96465 35124 ft 395 kts 238°
2026-04-30 12:00 41.76782 2.90511 35124 ft 394 kts 238°
2026-04-30 12:00 41.73559 2.84568 35104 ft 394 kts 238°
2026-04-30 12:01 41.70336 2.78631 35108 ft 394 kts 238°
2026-04-30 12:01 41.67115 2.72755 35113 ft 394 kts 237°
2026-04-30 12:02 41.63742 2.66940 35111 ft 394 kts 236°
2026-04-30 12:02 41.60345 2.61189 35106 ft 394 kts 236°
2026-04-30 12:03 41.55289 2.52578 35117 ft 394 kts 237°
2026-04-30 12:04 41.51920 2.46812 35090 ft 394 kts 237°
2026-04-30 12:04 41.48551 2.41049 35086 ft 394 kts 237°
2026-04-30 12:05 41.45183 2.35296 35094 ft 393 kts 237°
2026-04-30 12:05 41.41809 2.29554 35096 ft 393 kts 236°
2026-04-30 12:06 41.38423 2.23811 35100 ft 393 kts 236°
2026-04-30 12:06 41.35034 2.18088 35102 ft 393 kts 236°
2026-04-30 12:07 41.31663 2.12407 35080 ft 393 kts 236°
2026-04-30 12:07 41.28159 2.06780 35086 ft 396 kts 233°
2026-04-30 12:08 41.24450 2.01360 35090 ft 397 kts 232°
2026-04-30 12:08 41.20705 1.95957 35093 ft 397 kts 232°
2026-04-30 12:09 41.16998 1.90517 35097 ft 397 kts 233°
2026-04-30 12:09 41.13309 1.85061 35094 ft 397 kts 233°
2026-04-30 12:10 41.09633 1.79641 35078 ft 398 kts 232°
2026-04-30 12:10 41.05926 1.74195 35084 ft 398 kts 232°
2026-04-30 12:11 41.02211 1.68750 35084 ft 399 kts 232°
2026-04-30 12:11 40.98497 1.63297 35089 ft 399 kts 232°
2026-04-30 12:12 40.94776 1.57853 35094 ft 399 kts 232°
2026-04-30 12:12 40.91650 1.53302 35095 ft 399 kts 232°
2026-04-30 12:13 40.87939 1.47910 35068 ft 399 kts 232°
2026-04-30 12:13 40.84202 1.42474 35076 ft 400 kts 232°
2026-04-30 12:14 40.80463 1.37037 35089 ft 400 kts 232°
2026-04-30 12:14 40.76706 1.31601 35090 ft 401 kts 231°
2026-04-30 12:15 40.72941 1.26173 35084 ft 401 kts 231°
2026-04-30 12:15 40.69176 1.20752 35094 ft 401 kts 231°
2026-04-30 12:16 40.65417 1.15328 35091 ft 401 kts 231°
2026-04-30 12:16 40.61653 1.09907 35097 ft 401 kts 231°
2026-04-30 12:17 40.56001 1.01785 35102 ft 401 kts 231°
2026-04-30 12:17 40.52255 0.96415 35102 ft 401 kts 231°
2026-04-30 12:18 40.48478 0.91021 35091 ft 401 kts 231°
2026-04-30 12:18 40.44695 0.85627 35082 ft 401 kts 231°
2026-04-30 12:19 40.40902 0.80239 35091 ft 402 kts 231°
2026-04-30 12:19 40.37106 0.74847 35092 ft 402 kts 230°
2026-04-30 12:20 40.33308 0.69444 35090 ft 403 kts 230°
2026-04-30 12:20 40.29498 0.64055 35091 ft 403 kts 230°
2026-04-30 12:21 40.25705 0.58703 35090 ft 403 kts 230°
2026-04-30 12:21 40.21887 0.53320 35075 ft 404 kts 230°
2026-04-30 12:22 40.18051 0.47928 35080 ft 405 kts 230°
2026-04-30 12:22 40.14213 0.42537 35083 ft 405 kts 230°
2026-04-30 12:23 40.10375 0.37151 35082 ft 405 kts 230°
2026-04-30 12:23 40.06523 0.31759 35078 ft 406 kts 230°
2026-04-30 12:24 40.02662 0.26364 35061 ft 406 kts 229°
2026-04-30 12:24 39.98803 0.20974 35065 ft 407 kts 229°
2026-04-30 12:25 39.94956 0.15604 35071 ft 407 kts 229°
2026-04-30 12:25 39.91080 0.10219 35069 ft 407 kts 229°
2026-04-30 12:26 39.87201 0.04836 35076 ft 408 kts 229°
2026-04-30 12:26 39.83315 -0.00549 35079 ft 408 kts 229°
2026-04-30 12:27 39.79430 -0.05938 35062 ft 408 kts 228°
2026-04-30 12:27 39.75562 -0.11285 35062 ft 408 kts 228°
2026-04-30 12:28 39.71659 -0.16664 35067 ft 409 kts 228°
2026-04-30 12:28 39.67755 -0.22030 35065 ft 409 kts 228°
2026-04-30 12:29 39.63848 -0.27400 35067 ft 409 kts 228°
2026-04-30 12:29 39.59938 -0.32761 35068 ft 409 kts 228°
2026-04-30 12:30 39.56023 -0.38115 35060 ft 409 kts 227°
2026-04-30 12:30 39.52105 -0.43456 35068 ft 409 kts 227°
2026-04-30 12:31 39.48236 -0.48857 35069 ft 408 kts 233°
2026-04-30 12:31 39.44811 -0.54722 35072 ft 408 kts 233°
2026-04-30 12:32 39.41378 -0.60581 35072 ft 409 kts 233°
2026-04-30 12:32 39.37938 -0.66440 35076 ft 409 kts 233°
2026-04-30 12:33 39.34511 -0.72254 35057 ft 409 kts 233°
2026-04-30 12:33 39.31060 -0.78109 35071 ft 409 kts 233°
2026-04-30 12:34 39.27608 -0.83960 35067 ft 410 kts 233°
2026-04-30 12:34 39.24150 -0.89813 35069 ft 410 kts 233°
2026-04-30 12:35 39.20688 -0.95667 35071 ft 410 kts 233°
2026-04-30 12:35 39.17213 -1.01520 35071 ft 411 kts 233°
2026-04-30 12:36 39.13741 -1.07366 35071 ft 411 kts 233°
2026-04-30 12:36 39.10259 -1.13217 35067 ft 411 kts 232°
2026-04-30 12:37 39.06774 -1.19053 35075 ft 412 kts 232°
2026-04-30 12:37 39.03296 -1.24857 35079 ft 412 kts 232°
2026-04-30 12:38 38.99794 -1.30701 35081 ft 412 kts 232°
2026-04-30 12:38 38.96293 -1.36546 35082 ft 412 kts 232°
2026-04-30 12:39 38.92786 -1.42384 35094 ft 413 kts 232°
2026-04-30 12:39 38.89275 -1.48214 35099 ft 412 kts 232°
2026-04-30 12:40 38.85761 -1.54032 35110 ft 412 kts 231°
2026-04-30 12:40 38.82243 -1.59850 35105 ft 412 kts 231°
2026-04-30 12:41 38.78727 -1.65660 35105 ft 412 kts 231°
2026-04-30 12:41 38.75207 -1.71467 35107 ft 412 kts 231°
2026-04-30 12:42 38.71710 -1.77216 35099 ft 412 kts 231°
2026-04-30 12:42 38.68190 -1.82998 35095 ft 412 kts 231°
2026-04-30 12:43 38.64666 -1.88780 35084 ft 412 kts 231°
2026-04-30 12:43 38.61141 -1.94553 35078 ft 412 kts 231°
2026-04-30 12:44 38.57608 -2.00321 35080 ft 412 kts 231°
2026-04-30 12:44 38.54075 -2.06073 35076 ft 412 kts 231°
2026-04-30 12:45 38.50532 -2.11826 35075 ft 412 kts 231°
2026-04-30 12:45 38.46997 -2.17577 35074 ft 411 kts 231°
2026-04-30 12:46 38.43461 -2.23333 35071 ft 412 kts 231°
2026-04-30 12:46 38.39943 -2.29043 35075 ft 411 kts 231°
2026-04-30 12:47 38.36392 -2.34768 35075 ft 412 kts 229°
2026-04-30 12:47 38.32495 -2.40094 35071 ft 411 kts 225°
2026-04-30 12:48 38.28555 -2.45379 35069 ft 411 kts 225°
2026-04-30 12:48 38.24613 -2.50671 35073 ft 412 kts 225°
2026-04-30 12:49 38.20664 -2.55949 35072 ft 412 kts 225°
2026-04-30 12:49 38.16714 -2.61229 35071 ft 412 kts 225°
2026-04-30 12:50 38.12768 -2.66500 35064 ft 411 kts 225°
2026-04-30 12:50 38.08823 -2.71759 35074 ft 411 kts 225°
2026-04-30 12:51 38.04871 -2.77017 35066 ft 412 kts 225°
2026-04-30 12:51 38.00910 -2.82265 35061 ft 412 kts 225°
2026-04-30 12:52 37.96972 -2.87482 35057 ft 412 kts 225°
2026-04-30 12:52 37.93011 -2.92729 35052 ft 412 kts 225°
2026-04-30 12:53 37.89051 -2.97978 35049 ft 412 kts 225°
2026-04-30 12:53 37.85093 -3.03210 35057 ft 411 kts 225°
2026-04-30 12:54 37.81129 -3.08427 35072 ft 411 kts 224°
2026-04-30 12:54 37.77162 -3.13635 35063 ft 411 kts 226°
2026-04-30 12:55 37.74107 -3.19749 35054 ft 416 kts 246°
2026-04-30 12:55 37.72986 -3.26919 35047 ft 424 kts 262°
2026-04-30 12:56 37.72595 -3.34362 35042 ft 424 kts 262°
2026-04-30 12:56 37.72176 -3.41803 35045 ft 425 kts 262°
2026-04-30 12:57 37.71750 -3.49255 35046 ft 426 kts 262°
2026-04-30 12:57 37.71330 -3.56720 35046 ft 427 kts 262°
2026-04-30 12:58 37.70900 -3.64204 35046 ft 427 kts 262°
2026-04-30 12:58 37.70466 -3.71689 35047 ft 428 kts 262°
2026-04-30 12:59 37.70104 -3.77912 35049 ft 428 kts 262°
2026-04-30 12:59 37.69589 -3.86627 35061 ft 428 kts 262°
2026-04-30 13:00 37.69221 -3.92905 35056 ft 428 kts 262°
2026-04-30 13:00 37.68772 -4.00368 35056 ft 428 kts 262°
2026-04-30 13:01 37.68315 -4.07869 35053 ft 428 kts 262°
2026-04-30 13:01 37.67859 -4.15371 35050 ft 428 kts 262°
2026-04-30 13:02 37.67400 -4.22870 35048 ft 428 kts 262°
2026-04-30 13:02 37.66926 -4.30355 35043 ft 427 kts 262°
2026-04-30 13:03 37.66447 -4.37835 35044 ft 427 kts 261°
2026-04-30 13:03 37.65971 -4.45309 35045 ft 427 kts 261°
2026-04-30 13:04 37.65491 -4.52747 35051 ft 427 kts 261°
2026-04-30 13:04 37.65003 -4.60222 35068 ft 428 kts 261°
2026-04-30 13:05 37.64509 -4.67698 35060 ft 427 kts 261°
2026-04-30 13:06 37.63757 -4.78905 35053 ft 427 kts 261°
2026-04-30 13:06 37.63253 -4.86377 35053 ft 427 kts 261°
2026-04-30 13:07 37.62739 -4.93851 35055 ft 427 kts 261°
2026-04-30 13:07 37.62219 -5.01331 35067 ft 428 kts 261°
2026-04-30 13:08 37.61700 -5.08814 35064 ft 429 kts 261°
2026-04-30 13:08 37.61178 -5.16312 35065 ft 429 kts 261°
2026-04-30 13:09 37.60559 -5.23738 35069 ft 426 kts 255°
2026-04-30 13:09 37.58639 -5.30719 35064 ft 420 kts 243°
2026-04-30 13:10 37.56295 -5.37455 35079 ft 420 kts 244°
2026-04-30 13:10 37.53952 -5.44193 35083 ft 419 kts 244°
2026-04-30 13:11 37.51613 -5.50923 35074 ft 419 kts 244°
2026-04-30 13:11 37.49265 -5.57639 35073 ft 419 kts 244°
2026-04-30 13:12 37.46923 -5.64352 35082 ft 419 kts 244°
2026-04-30 13:12 37.44571 -5.71071 35094 ft 419 kts 244°
2026-04-30 13:13 37.41558 -5.77200 35086 ft 414 kts 226°
2026-04-30 13:13 37.39499 -5.79711 35082 ft 412 kts 219°
2026-04-30 13:14 37.32912 -5.86701 35066 ft 413 kts 220°
2026-04-30 13:14 37.26328 -5.93710 35059 ft 413 kts 219°
2026-04-30 13:15 37.19743 -6.00687 35063 ft 413 kts 219°
2026-04-30 13:16 37.15358 -6.05330 35064 ft 412 kts 219°
2026-04-30 13:16 37.10996 -6.09933 35078 ft 412 kts 219°
2026-04-30 13:17 37.04406 -6.16869 35065 ft 412 kts 219°
2026-04-30 13:18 36.97819 -6.23796 35064 ft 412 kts 219°
2026-04-30 13:18 36.91233 -6.30707 35071 ft 411 kts 219°
2026-04-30 13:19 36.86851 -6.35298 35070 ft 411 kts 219°
2026-04-30 13:19 36.82491 -6.39855 35073 ft 411 kts 219°
2026-04-30 13:20 36.78109 -6.44432 35066 ft 411 kts 219°
2026-04-30 13:20 36.73724 -6.48999 35075 ft 411 kts 219°
2026-04-30 13:21 36.69328 -6.53577 35065 ft 411 kts 219°
2026-04-30 13:22 36.62728 -6.60437 35075 ft 412 kts 219°
2026-04-30 13:22 36.56132 -6.67254 35080 ft 413 kts 219°
2026-04-30 13:23 36.49515 -6.74110 35084 ft 413 kts 219°
2026-04-30 13:24 36.40678 -6.83220 35093 ft 412 kts 219°
2026-04-30 13:25 36.31825 -6.92308 35105 ft 413 kts 219°
2026-04-30 13:26 36.20717 -7.03676 35106 ft 414 kts 219°
2026-04-30 13:28 36.09629 -7.14991 35110 ft 414 kts 219°
2026-04-30 13:28 36.02957 -7.21784 35110 ft 414 kts 219°
2026-04-30 13:29 35.94046 -7.30828 35116 ft 415 kts 219°
2026-04-30 13:31 35.82898 -7.42101 35110 ft 414 kts 219°
2026-04-30 13:32 35.71731 -7.53266 35114 ft 415 kts 219°
2026-04-30 13:33 35.62753 -7.62177 35120 ft 415 kts 219°
2026-04-30 13:34 35.56019 -7.68872 35111 ft 415 kts 219°
2026-04-30 13:35 35.47012 -7.77774 35104 ft 415 kts 219°
2026-04-30 13:36 35.38042 -7.86652 35108 ft 415 kts 220°
2026-04-30 13:36 35.31338 -7.93390 35109 ft 415 kts 220°
2026-04-30 13:37 35.24645 -8.00063 35111 ft 416 kts 219°
2026-04-30 13:38 35.17900 -8.06764 35107 ft 416 kts 220°
2026-04-30 13:39 35.08914 -8.15687 35113 ft 416 kts 220°
2026-04-30 13:40 35.02171 -8.22357 35109 ft 416 kts 220°
2026-04-30 13:40 34.97679 -8.26794 35109 ft 416 kts 220°
2026-04-30 13:41 34.93212 -8.31212 35097 ft 415 kts 220°
2026-04-30 13:41 34.88711 -8.35645 35112 ft 415 kts 220°
2026-04-30 13:42 34.84219 -8.40061 35112 ft 415 kts 220°
2026-04-30 13:42 34.77475 -8.46689 35113 ft 415 kts 220°
2026-04-30 13:43 34.72975 -8.51088 35108 ft 415 kts 220°
2026-04-30 13:43 34.68508 -8.55459 35099 ft 415 kts 220°
2026-04-30 13:44 34.64007 -8.59866 35104 ft 415 kts 220°
2026-04-30 13:44 34.59502 -8.64268 35106 ft 415 kts 220°
2026-04-30 13:45 34.53511 -8.70114 35106 ft 415 kts 220°
2026-04-30 13:46 34.49000 -8.74496 35119 ft 415 kts 219°
2026-04-30 13:46 34.44484 -8.78871 35120 ft 415 kts 220°
2026-04-30 13:47 34.39973 -8.83236 35107 ft 415 kts 219°
2026-04-30 13:47 34.35449 -8.87585 35106 ft 415 kts 219°
2026-04-30 13:48 34.30946 -8.91898 35104 ft 415 kts 219°
2026-04-30 13:48 34.26389 -8.96266 35103 ft 415 kts 219°
2026-04-30 13:49 34.21889 -9.00568 35104 ft 415 kts 219°
2026-04-30 13:49 34.17361 -9.04904 35103 ft 415 kts 219°
2026-04-30 13:50 34.12833 -9.09238 35101 ft 415 kts 220°
2026-04-30 13:50 34.06031 -9.15713 35103 ft 415 kts 220°
2026-04-30 13:51 34.01491 -9.20035 35104 ft 415 kts 220°
2026-04-30 13:51 33.96996 -9.24302 35108 ft 415 kts 220°
2026-04-30 13:52 33.92433 -9.28621 35104 ft 415 kts 220°
2026-04-30 13:52 33.87991 -9.32834 35106 ft 415 kts 220°
2026-04-30 13:53 33.83445 -9.37133 35099 ft 415 kts 220°
2026-04-30 13:53 33.78895 -9.41427 35100 ft 416 kts 220°
2026-04-30 13:54 33.74342 -9.45727 35103 ft 416 kts 220°
2026-04-30 13:54 33.69780 -9.50029 35098 ft 417 kts 221°
2026-04-30 13:55 33.65209 -9.54334 35095 ft 418 kts 221°
2026-04-30 13:55 33.60625 -9.58635 35092 ft 418 kts 221°
2026-04-30 13:56 33.56037 -9.62941 35084 ft 419 kts 222°
2026-04-30 13:56 33.51436 -9.67256 35084 ft 420 kts 222°
2026-04-30 13:57 33.46830 -9.71574 35086 ft 421 kts 222°
2026-04-30 13:57 33.42210 -9.75886 35090 ft 421 kts 221°
2026-04-30 13:58 33.35270 -9.82362 35096 ft 422 kts 222°
2026-04-30 13:59 33.30615 -9.86708 35116 ft 430 kts 225°
2026-04-30 13:59 33.25868 -9.91126 35112 ft 440 kts 225°
2026-04-30 14:00 33.21020 -9.95613 35112 ft 441 kts 225°
2026-04-30 14:00 33.13892 -10.02214 35114 ft 442 kts 225°
2026-04-30 14:01 33.09030 -10.06711 35112 ft 442 kts 225°
2026-04-30 14:01 33.04165 -10.11198 35112 ft 442 kts 225°
2026-04-30 14:02 32.99336 -10.15657 35111 ft 442 kts 225°
2026-04-30 14:02 32.94477 -10.20133 35111 ft 442 kts 225°
2026-04-30 14:03 32.89607 -10.24605 35088 ft 443 kts 226°
2026-04-30 14:03 32.84727 -10.29081 35097 ft 443 kts 226°
2026-04-30 14:04 32.79829 -10.33566 35096 ft 444 kts 226°
2026-04-30 14:04 32.74923 -10.38050 35100 ft 444 kts 226°
2026-04-30 14:05 32.70025 -10.42525 35085 ft 444 kts 226°
2026-04-30 14:05 32.65128 -10.46999 35097 ft 444 kts 226°
2026-04-30 14:06 32.57766 -10.53700 35102 ft 445 kts 226°
2026-04-30 14:07 32.50429 -10.60361 35112 ft 443 kts 226°
2026-04-30 14:08 32.43090 -10.67016 35097 ft 442 kts 226°
2026-04-30 14:08 32.35801 -10.73601 35116 ft 441 kts 226°
2026-04-30 14:09 32.30923 -10.78000 35118 ft 441 kts 226°
2026-04-30 14:10 32.23611 -10.84595 35115 ft 441 kts 226°
2026-04-30 14:10 32.18736 -10.88985 35121 ft 440 kts 226°
2026-04-30 14:11 32.13859 -10.93375 35102 ft 440 kts 226°
2026-04-30 14:11 32.08985 -10.97748 35099 ft 440 kts 226°
2026-04-30 14:12 32.04121 -11.02107 35133 ft 439 kts 226°
2026-04-30 14:12 31.99257 -11.06464 35130 ft 438 kts 225°
2026-04-30 14:13 31.94430 -11.10776 35121 ft 438 kts 225°
2026-04-30 14:13 31.89575 -11.15109 35130 ft 438 kts 226°
2026-04-30 14:14 31.84728 -11.19443 35112 ft 438 kts 226°
2026-04-30 14:14 31.79874 -11.23763 35112 ft 438 kts 225°
2026-04-30 14:15 31.75014 -11.28081 35119 ft 438 kts 225°
2026-04-30 14:15 31.70165 -11.32413 35099 ft 437 kts 226°
2026-04-30 14:16 31.65321 -11.36736 35120 ft 436 kts 225°
2026-04-30 14:16 31.60492 -11.41039 35130 ft 435 kts 225°
2026-04-30 14:17 31.55669 -11.45317 35119 ft 435 kts 225°
2026-04-30 14:17 31.50876 -11.49564 35120 ft 434 kts 225°
2026-04-30 14:18 31.46062 -11.53837 35118 ft 434 kts 225°
2026-04-30 14:18 31.38839 -11.60240 35121 ft 434 kts 225°
2026-04-30 14:19 31.31597 -11.66631 35124 ft 434 kts 225°
2026-04-30 14:20 31.26775 -11.70879 35122 ft 434 kts 225°
2026-04-30 14:20 31.19531 -11.77250 35106 ft 434 kts 225°
2026-04-30 14:21 31.14709 -11.81496 35113 ft 434 kts 225°
2026-04-30 14:22 31.07467 -11.87859 35116 ft 434 kts 225°
2026-04-30 14:22 31.00205 -11.94198 35125 ft 434 kts 225°
2026-04-30 14:23 30.90565 -12.02620 35117 ft 434 kts 225°
2026-04-30 14:24 30.83320 -12.08947 35129 ft 433 kts 225°
2026-04-30 14:25 30.73683 -12.17325 35141 ft 432 kts 225°
2026-04-30 14:26 30.66529 -12.23535 35143 ft 431 kts 225°
2026-04-30 14:27 30.59326 -12.29786 35126 ft 431 kts 225°
2026-04-30 14:27 30.54519 -12.33933 35127 ft 431 kts 225°
2026-04-30 14:28 30.47323 -12.40154 35135 ft 430 kts 225°
2026-04-30 14:28 30.42511 -12.44277 35137 ft 430 kts 225°
2026-04-30 14:29 30.33725 -12.51799 35125 ft 428 kts 225°
2026-04-30 14:31 30.20985 -12.62708 35138 ft 427 kts 225°
2026-04-30 14:31 30.13802 -12.68824 35138 ft 427 kts 225°
2026-04-30 14:32 30.07683 -12.74516 35136 ft 421 kts 230°
2026-04-30 14:33 30.03303 -12.79011 35121 ft 421 kts 230°
2026-04-30 14:33 29.96727 -12.85729 35134 ft 420 kts 230°
2026-04-30 14:34 29.92354 -12.90210 35138 ft 420 kts 230°
2026-04-30 14:34 29.88013 -12.94652 35138 ft 420 kts 230°
2026-04-30 14:35 29.81447 -13.01341 35138 ft 420 kts 230°
2026-04-30 14:36 29.77067 -13.05798 35137 ft 420 kts 230°
2026-04-30 14:36 29.72690 -13.10250 35121 ft 420 kts 230°
2026-04-30 14:37 29.68315 -13.14698 35110 ft 419 kts 230°
2026-04-30 14:37 29.63960 -13.19106 35122 ft 419 kts 230°
2026-04-30 14:38 29.59592 -13.23524 35136 ft 418 kts 230°
2026-04-30 14:38 29.55229 -13.27942 35145 ft 418 kts 230°
2026-04-30 14:39 29.50869 -13.32354 35134 ft 418 kts 230°
2026-04-30 14:39 29.46507 -13.36756 35142 ft 417 kts 230°
2026-04-30 14:40 29.39962 -13.43353 35128 ft 417 kts 230°
2026-04-30 14:40 29.35601 -13.47738 35134 ft 417 kts 229°
2026-04-30 14:41 29.31233 -13.52121 35133 ft 416 kts 229°
2026-04-30 14:41 29.26890 -13.56478 35148 ft 414 kts 229°
2026-04-30 14:42 29.22599 -13.60795 35150 ft 413 kts 229°
2026-04-30 14:42 29.18278 -13.65130 35152 ft 412 kts 229°
2026-04-30 14:43 29.13963 -13.69445 35151 ft 412 kts 229°
2026-04-30 14:43 29.09651 -13.73752 35134 ft 411 kts 229°
2026-04-30 14:44 29.05334 -13.78061 35133 ft 412 kts 229°
2026-04-30 14:44 29.01019 -13.82361 35136 ft 412 kts 229°
2026-04-30 14:45 28.96702 -13.86666 35120 ft 411 kts 229°
2026-04-30 14:45 28.92393 -13.90958 35131 ft 411 kts 229°
2026-04-30 14:46 28.88071 -13.95253 35127 ft 411 kts 229°
2026-04-30 14:46 28.83754 -13.99534 35126 ft 411 kts 229°
2026-04-30 14:47 28.79468 -14.03781 35112 ft 411 kts 229°
2026-04-30 14:47 28.75146 -14.08060 35108 ft 412 kts 229°
2026-04-30 14:48 28.70807 -14.12347 35109 ft 413 kts 229°
2026-04-30 14:48 28.66463 -14.16640 35111 ft 413 kts 229°
2026-04-30 14:49 28.62114 -14.20939 35111 ft 414 kts 229°
2026-04-30 14:49 28.57762 -14.25232 35110 ft 414 kts 228°
2026-04-30 14:50 28.51233 -14.31656 35122 ft 413 kts 228°
2026-04-30 14:51 28.44707 -14.38070 35126 ft 413 kts 229°
2026-04-30 14:52 28.38186 -14.44466 35123 ft 413 kts 229°
2026-04-30 14:52 28.31660 -14.50851 35132 ft 412 kts 229°
2026-04-30 14:53 28.25150 -14.57227 35124 ft 412 kts 229°
2026-04-30 14:54 28.16496 -14.65664 35123 ft 411 kts 228°
2026-04-30 14:55 28.09994 -14.71995 35119 ft 410 kts 228°
2026-04-30 14:56 28.01337 -14.80412 35120 ft 410 kts 228°
2026-04-30 14:57 27.94836 -14.86710 35123 ft 410 kts 228°
2026-04-30 14:58 27.86211 -14.95075 35107 ft 409 kts 228°
2026-04-30 14:58 27.79709 -15.01341 35100 ft 409 kts 227°
2026-04-30 15:00 27.68883 -15.11795 35108 ft 410 kts 227°
2026-04-30 15:01 27.60198 -15.20146 35113 ft 410 kts 227°
2026-04-30 15:01 27.53682 -15.26396 35108 ft 410 kts 227°
2026-04-30 15:02 27.49337 -15.30559 35085 ft 410 kts 227°
2026-04-30 15:03 27.38497 -15.40943 35098 ft 410 kts 227°
2026-04-30 15:04 27.27599 -15.51332 35107 ft 410 kts 227°
2026-04-30 15:06 27.16710 -15.61703 35095 ft 410 kts 227°
2026-04-30 15:07 27.07981 -15.69980 35103 ft 410 kts 226°
2026-04-30 15:08 26.99267 -15.78247 35111 ft 410 kts 226°
2026-04-30 15:09 26.88376 -15.88538 35116 ft 410 kts 226°
2026-04-30 15:10 26.79662 -15.96762 35116 ft 409 kts 226°
2026-04-30 15:11 26.66592 -16.09052 35118 ft 408 kts 226°
2026-04-30 15:13 26.55759 -16.19232 35119 ft 408 kts 226°
2026-04-30 15:14 26.40512 -16.33491 35111 ft 409 kts 226°
2026-04-30 15:17 26.21647 -16.51048 35123 ft 408 kts 225°
2026-04-30 15:19 26.04174 -16.67270 35132 ft 411 kts 225°